[TLELIST]

Mailing List Information:

  • This mailing list is a public mailing list - anyone may join or leave, at any time.

  • This mailing list is announce-only.

International Space Station (ISS) / Hubble Space Telescope (HST) / Chandra X-Ray Observatory Orbital Data via EMAIL

Privacy Policy:

Private list

Archives:

[TLELIST] Current TLEs

Sent April 26th 2018

HST 1 20580U 90037B 18115.41361177 .00000500 00000-0 19699-4 0 9993 2 20580 28.4690 103.9640 0002455 294.6441 193.7806 15.09023791337492 ISS (ZARYA) 1 25544U 98067A 18116.51444130 .00001887 00000-0 35692-4 0 9992 2 25544 51.6423 276.3066 0002622 21.2327 50.9062 15.54164801110483 CXO 1 25867U 99040B 18119.04422867 .00000425 00000-0 00000+0 0 9993 2 25867 71.7825 283.8618 6850910 243.6285 0.1021 0.37806004 17241 ____________________________________________________________________ These 2-Line ...

[TLELIST] Current TLEs

Sent April 25th 2018

HST 1 20580U 90037B 18114.42652590 +.00000479 +00000-0 +18383-4 0 9999 2 20580 028.4689 110.4892 0002445 282.9932 232.4773 15.09022973337255 ISS (ZARYA) 1 25544U 98067A 18115.49170498 .00002339 00000-0 42514-4 0 9995 2 25544 51.6422 281.4025 0002555 18.9975 87.1605 15.54161598110329 CXO 1 25867U 99040B 18116.39912326 +.00000454 +00000-0 +00000-0 0 9995 2 25867 071.8143 283.9340 6849954 243.6672 000.0895 00.37805493006106 ____________________________________________________________________ These 2-Line ...

[TLELIST] Current TLEs

Sent April 24th 2018

HST 1 20580U 90037B 18114.21672374 .00000479 00000-0 18404-4 0 9992 2 20580 28.4689 111.8761 0002444 280.3422 173.1231 15.09022816337302 ISS (ZARYA) 1 25544U 98067A 18114.01877914 .00002916 00000-0 51212-4 0 9995 2 25544 51.6416 288.7459 0002412 16.2207 123.5085 15.54155382110099 CXO 1 25867U 99040B 18116.39895508 .00000454 00000-0 00000+0 0 9996 2 25867 71.8144 283.9340 6849921 243.6669 0.0663 0.37806224 17239 ____________________________________________________________________ These 2-Line ...

[TLELIST] Current TLEs

Sent April 23rd 2018

HST 1 20580U 90037B 18112.43505187 .00000519 00000-0 20859-4 0 9993 2 20580 28.4687 123.6541 0002446 259.4587 215.9306 15.09021861337035 ISS (ZARYA) 1 25544U 98067A 18113.48831822 .00002704 00000-0 48029-4 0 9990 2 25544 51.6419 291.3907 0002510 12.8264 37.0298 15.54151217110014 CXO 1 25867U 99040B 18113.75556329 .00000505 00000-0 00000+0 0 9995 2 25867 71.8406 284.0028 6846696 243.7060 0.2889 0.37802680 17220 ____________________________________________________________________ These 2-Line ...

[TLELIST] Current TLEs

Sent April 22nd 2018

HST 1 20580U 90037B 18111.51233580 +.00000553 +00000-0 +22926-4 0 9991 2 20580 028.4687 129.7537 0002458 248.6624 244.1611 15.09021488336815 ISS (ZARYA) 1 25544U 98067A 18112.39913316 .00002404 00000-0 43520-4 0 9996 2 25544 51.6416 296.8214 0002538 8.8037 63.0898 15.54142824109843 CXO 1 25867U 99040B 18113.75556329 .00000505 00000-0 00000+0 0 9995 2 25867 71.8406 284.0028 6846696 243.7060 0.2889 0.37802680 17220 ____________________________________________________________________ These 2-Line ...

[TLELIST] Current TLEs

Sent April 21st 2018

HST 1 20580U 90037B 18111.23817411 .00000553 00000-0 22919-4 0 9993 2 20580 28.4687 131.5661 0002466 245.4271 195.0681 15.09021283336854 ISS (ZARYA) 1 25544U 98067A 18111.49388262 .00002444 00000-0 44134-4 0 9998 2 25544 51.6416 301.3344 0002503 5.6202 38.1254 15.54137708109709 CXO 1 25867U 99040B 18111.11140148 +.00000565 +00000-0 +00000-0 0 9998 2 25867 071.8638 284.0594 6842118 243.7612 000.3643 00.37798326006074 ____________________________________________________________________ These 2-Line ...

[TLELIST] Current TLEs

Sent April 20th 2018

HST 1 20580U 90037B 18110.21178775 .00000468 00000-0 17681-4 0 9998 2 20580 28.4687 138.3511 0002490 233.6785 19.9491 15.09020052336709 ISS (ZARYA) 1 25544U 98067A 18110.52594634 .00003696 00000-0 63026-4 0 9994 2 25544 51.6411 306.1617 0002611 359.2346 25.4373 15.54136240109551 CXO 1 25867U 99040B 18111.11140148 +.00000565 +00000-0 +00000-0 0 9998 2 25867 071.8638 284.0594 6842118 243.7612 000.3643 00.37798326006074 ____________________________________________________________________ These 2-Line ...

[TLELIST] Current TLEs

Sent April 19th 2018

HST 1 20580U 90037B 18109.18498883 .00000465 00000-0 17503-4 0 9997 2 20580 28.4687 145.1387 0002526 221.7356 202.7838 15.09019419336542 ISS (ZARYA) 1 25544U 98067A 18109.50825785 .00009091 00000-0 14436-3 0 9999 2 25544 51.6431 311.2396 0002470 351.1261 95.9371 15.54135481109392 CXO 1 25867U 99040B 18111.11140148 +.00000565 +00000-0 +00000-0 0 9998 2 25867 071.8638 284.0594 6842118 243.7612 000.3643 00.37798326006074 ____________________________________________________________________ These 2-Line ...

[TLELIST] Current TLEs

Sent April 18th 2018

HST 1 20580U 90037B 18107.54680972 .00000478 00000-0 18332-4 0 9992 2 20580 28.4687 155.9678 0002580 203.0530 304.4767 15.09018507336303 ISS (ZARYA) 1 25544U 98067A 18108.41076252 .00001970 00000-0 36793-4 0 9994 2 25544 51.6426 316.7070 0002092 4.2466 58.4048 15.54276402109224 CXO 1 25867U 99040B 18111.11137700 .00000565 00000-0 00000+0 0 9997 2 25867 71.8639 284.0599 6842172 243.7609 0.3579 0.37798113 17216 ____________________________________________________________________ These 2-Line ...

[TLELIST] Current TLEs

Sent April 17th 2018

HST 1 20580U 90037B 18106.61829536 +.00000488 +00000-0 +18913-4 0 9996 2 20580 028.4687 162.1057 0002614 192.8277 300.5847 15.09017919336071 ISS (ZARYA) 1 25544U 98067A 18107.44763100 .00001858 00000-0 35119-4 0 9997 2 25544 51.6430 321.5086 0002048 0.7561 69.2289 15.54271367109073 CXO 1 25867U 99040B 18108.46599891 .00000617 00000-0 00000+0 0 9992 2 25867 71.8788 284.0990 6838171 243.8437 0.2194 0.37797929 17205 ____________________________________________________________________ These 2-Line ...

< < Previous

Index

 

this list's archives:

(archive rss , atom rss/atom )

Administration